Regional Weather Roundup
Issued by NWS

Home | Current Version | Previous Version | Text Only | Print | Product List | Glossary Off
Versions: 1 2 3 4 5 6 7 8 9 10 11 12 13 14 15 16 17 18 19 20 21 22 23 24 25 26 27 28 29 30 31 32 33 34 35 36 37 38 39 40 41 42 43 44 45 46 47 48 49 50

000
ASUS43 KMPX 252010
RWRMN
WEATHER ROUNDUP FOR MINNESOTA
NATIONAL WEATHER SERVICE TWIN CITIES/CHANHASSEN MN
200 PM CST SAT FEB 25 2017


NOTE: "FAIR" INDICATES FEW OR NO CLOUDS BELOW 12,000 FEET WITH NO
SIGNIFICANT WEATHER AND/OR OBSTRUCTIONS TO VISIBILITY. N/A MEANS
CURRENT SKY AND/OR WEATHER CONDITIONS ARE NOT AVAILABLE.

MNZ060>063-068>070-252100-
   Twin Cities Metro

CITY           SKY/WX    TMP DP  RH WIND       PRES   REMARKS
TWIN CITIES    MOSUNNY   32  10  40 W14       29.90F WCI  22
ST PAUL        SUNNY     32  11  41 W12       29.91F WCI  23
CRYSTAL        MOSUNNY   32  11  41 NW10      29.89F WCI  24
BLAINE         MOSUNNY   34  12  40 W14G21    29.89F WCI  24
LAKEVILLE      MOSUNNY   30  18  59 W8        29.91F WCI  23
EDEN PRAIRIE   MOSUNNY   32  12  43 W13       29.90F WCI  22
SOUTH ST PAUL  SUNNY     32  10  39 W7G18     29.90F WCI  26
LAKE ELMO      FAIR      32  12  43 W13G18    29.90F WCI  22
$$
MNZ001>005-007-008-013>017-022>024-027-028-252100-
   Northwest Minnesota

CITY           SKY/WX    TMP DP  RH WIND       PRES   REMARKS
BEMIDJI        CLOUDY    29  18  64 W20G25    29.75F WCI  16
HALLOCK        CLOUDY    25  19  80 NW17      29.77F WCI  11
ROSEAU         CLOUDY    25  18  74 SW10      29.74S WCI  15
WARROAD        CLOUDY    23  18  80 SW8       29.73F WCI  14
THIEF RVR FALL MOSUNNY   26  20  77 W13       29.77F WCI  15
CROOKSTON      PTSUNNY   30  21  69 NW10      29.79F WCI  21
FOSSTON        LGT SNOW  27  19  74 SW15      29.77F WCI  15
DETROIT LAKES  FLURRIES  30  23  74 W12       29.80F WCI  21
MOORHEAD       CLOUDY    28  21  74 W10       29.82F WCI  19
PARK RAPIDS    CLOUDY    29  18  63 SW16      29.77F WCI  17
MAHNOMEN       FLURRIES  28  22  79 W16       29.78S WCI  16
$$
MNZ006-009>011-018-025>026-252100-
   North Central Minnesota

CITY           SKY/WX    TMP DP  RH WIND       PRES   REMARKS
BAUDETTE       LGT SNOW  20  13  74 SW6       29.72F WCI  12
FLAG ISLAND    MOSUNNY   18  12  79 S14       29.72F WCI   4
INTL FALLS     CLOUDY    21   9  59 W6        29.74F WCI  13
WASKISH        LGT SNOW  21  18  86 W6        29.74F WCI  14
BIG FORK       LGT SNOW  21  16  79 S5        29.75F WCI  15
LONGVILLE      MOSUNNY   28  16  59 SW12G17   29.77F WCI  18
GRAND RAPIDS   MOSUNNY   27  13  55 W9        29.79F WCI  18
CRANE LAKE     CLOUDY    21   3  45 N3        29.76F
ORR            LGT RAIN  19   9  63 CALM      29.72F
COOK           CLOUDY    19   9  63 W9        29.75F WCI   9
WALKER         CLOUDY    28  17  63 SW14G20   29.76F WCI  17
$$
MNZ012-019>021-037-252100-
   Northeast Minnesota

CITY           SKY/WX    TMP DP  RH WIND       PRES   REMARKS
DULUTH         PTSUNNY   23  12  62 W14       29.77F WCI  11
ELY            SUNNY     21   1  42 NW6G18    29.72F WCI  14
HIBBING        CLOUDY    20   8  60 VRB7      29.76F WCI  11
EVELETH        SUNNY     22   2  41 W9        29.77F WCI  12
DULUTH HARBOR  CLOUDY    27  10  50 W5        29.84S WCI  21
TWO HARBORS    MOSUNNY   27  10  50 NW8G18    29.75F WCI  18
SILVER BAY     SUNNY     27   7  43 W8G16     29.73S WCI  18
GRAND MARAIS     N/A     28   4  35 W12G21    29.72S WCI  18
G MARAIS ARPRT SUNNY     19   0  42 NW16G23   29.63S WCI   5
$$
MNZ029>031-032-039>041-046>048-054>057-064-252100-
   West Central Minnesota

CITY           SKY/WX    TMP DP  RH WIND       PRES   REMARKS
FERGUS FALLS   LGT SNOW  30  23  74 W12       29.87F WCI  21
WHEATON        CLOUDY    36  19  51 SW14      29.85F
MORRIS         CLOUDY    36  19  51 W16       29.84F
ALEXANDRIA     CLOUDY    31  20  63 SW14      29.83F WCI  21
ELBOW LAKE     CLOUDY    32  21  64 SW16      29.83F HAZE    WCI  21
WADENA         MIX PCPN  27  19  74 W16G22    29.80F WCI  14
GLENWOOD       CLOUDY    32  19  59 SW16G23   29.85F WCI  21
APPLETON       CLOUDY    37  18  44 SW12G22   29.86F
BENSON         PTSUNNY   39  12  33 W16       29.88F
ORTONVILLE     SUNNY     36  18  48 SW15G22   29.85F
MADISON        PTSUNNY   37  19  48 SW15G24   29.88F
WILLMAR        FAIR      34  25  69 SW14G20   29.89F WCI  24
$$
MNZ033>034-036-042>043-049>051-058-059-252100-
   Central Minnesota

CITY           SKY/WX    TMP DP  RH WIND       PRES   REMARKS
ST CLOUD       PTSUNNY   31  16  54 W14       29.86F WCI  21
SAUK CENTRE    CLOUDY    31  17  54 W12G21    29.86S WCI  22
PAYNESVILLE    MOSUNNY   30  18  59 W13       29.88F WCI  20
AITKIN         MOSUNNY   30  14  51 W6        29.79F WCI  24
PINE RIVER     CLOUDY    28  18  64 SW6G16    29.83F WCI  22
BRAINERD       MOSUNNY   30  17  58 W16G22    29.82F WCI  19
STAPLES        CLOUDY    28  18  64 W15       29.81F WCI  17
LONG PRAIRIE   CLOUDY    30  18  59 SW12G22   29.84F WCI  21
LITTLE FALLS   CLOUDY    30  16  55 SW10      29.85F WCI  21
LITCHFIELD     PTSUNNY   32  18  55 W9        29.90F WCI  24
BUFFALO        MOSUNNY   32  16  52 W12       29.90F WCI  23
MAPLE LAKE     MOSUNNY   33  18  54 SW7       29.89F WCI  27
HUTCHINSON     PTSUNNY   32  21  64 SW12G17   29.91F WCI  23
$$
MNZ037-044-045-052-053-252100-
   East Central Minnesota

CITY           SKY/WX    TMP DP  RH WIND       PRES   REMARKS
PRINCETON      PTSUNNY   32  16  51 W9        29.87F WCI  24
MORA           MOSUNNY   32  14  47 W12       29.86F WCI  23
CAMBRIDGE      MOSUNNY   32  18  55 W12       29.85F WCI  23
RUSH CITY      SUNNY     30  12  47 W9        29.87F WCI  22
MOOSE LAKE     MOSUNNY   28  12  50 W9        29.80F WCI  20
HINCKLEY       FAIR      30  14  51 W7        29.85F WCI  23
CLOQUET        PTSUNNY   25  10  54 W13       29.79F WCI  13
MCGREGOR       PTSUNNY   28  16  59 W9        29.81F WCI  20
$$
MNZ071>073-080-081-089-090-097-098-252100-
   Southwest Minnesota

CITY           SKY/WX    TMP DP  RH WIND       PRES   REMARKS
MONTEVIDEO     CLOUDY    36  18  48 NW9G18    29.90F
GRANITE FALLS  PTSUNNY   35  21  56 SW14      29.91F WCI  26
CANBY          CLOUDY    35  19  52 SW15G23   29.89F WCI  25
MARSHALL       SUNNY     33  17  51 SW20      29.90F WCI  21
REDWOOD FALLS  CLOUDY    34  16  47 W14       29.91F WCI  25
OLIVIA         PTSUNNY   34  21  60 SW12      29.90F WCI  25
PIPESTONE      CLOUDY    27  16  63 SW16      29.91F WCI  14
WINDOM         SUNNY     28  19  69 SW16      29.93F WCI  17
WORTHINGTON    CLOUDY    25  19  78 SW14      29.94F WCI  13
JACKSON        CLOUDY    28  18  64 SW13      29.95F WCI  18
TRACY          SUNNY     32  20  62 SW17G24   29.92S WCI  21
SLAYTON        CLOUDY    28  19  71 SW17      29.92F WCI  15
$$
MNZ065>067-074>077-082>085-091>093-252100-
   South Central Minnesota

CITY           SKY/WX    TMP DP  RH WIND       PRES   REMARKS
MANKATO          N/A     29  18  63 W16       29.94F WCI  17
NEW ULM        PTSUNNY   34  16  47 W12       29.93F WCI  25
ST JAMES       SUNNY     28  19  69 SW13      29.96F WCI  18
FAIRMONT       SUNNY     27  16  63 SW15      29.97F WCI  15
GLENCOE        CLOUDY    32  24  71 W9        29.91F WCI  24
FARIBAULT      PTSUNNY   30  16  55 SW9G16    29.93F WCI  22
OWATONNA       SUNNY     27  14  59 SW12      29.93F WCI  16
WASECA         SUNNY     27  16  63 SW14      29.96S WCI  15
ALBERT LEA     SUNNY     23  14  68 SW9       29.95F WCI  13
$$
MNZ078>079-086>088-094>096-252100-
   Southeast Minnesota

CITY           SKY/WX    TMP DP  RH WIND       PRES   REMARKS
ROCHESTER      SUNNY     22  12  65 W13       29.93S WCI  10
RED WING       SUNNY     28   5  37 W9        29.91F WCI  20
STANTON        SUNNY     30  13  49 W9        29.91F WCI  22
WINONA         SUNNY     28  12  50 W8        29.95F WCI  20
AUSTIN         SUNNY     23  10  58 W13       29.95S WCI  11
PRESTON        SUNNY     22   9  58 W10       29.94S WCI  11
$$
ABBREVIATIONS USED IN REMARKS
   TC - TEMPERATURES IN CELSIUS
  WCI - WIND CHILL INDEX
   HX - HEAT INDEX
  VSB - VISIBILITY
$$




USA.gov is the U.S. government's official web portal to all federal, state and local government web resources and services.